ATLAS 5 CENTAUR DEB, 43976

Orbit data source: Space-Track

ATLAS 5 CENTAUR DEB, 43976 is space debris in HEO originally from a launch on Wed, 17 Sep 2014 UTC launched from the Air Force Eastern Test Range (AFETR). Debris objects in space refer to the collection of defunct objects orbiting the Earth. Examples of debris include non-operational satellites, rocket bodies, and fragments generated from explosions, collisions, or faulty payload assembly.

Not visible in the next 10 days
Identifier
43976, 2014-055AF
Orbit
HEO
Country
Flag of USUS
Related business
Flag of USUnited Launch Alliance/Lockheed Martin (US)
Manufacturer
Unknown
Mission
Spacecraft
Bus & Motor
Unknown
Mass
Unknown
Launch date (UTC)
2014-09-17 (12 years ago)
Launch vehicle
Unknown
Launch site
Air Force Eastern Test Range (AFETR)
Object type
Payload
Rocket body
Debris
Shape & HBR
Unknown shape, 1.1 m
Radar Cross Section
Medium (>0.1 m² and <1 m²)

Expand to show TLE details & history
Last TLE update: 5 days ago

TLE from 5 days ago
0 ATLAS 5 CENTAUR DEB
1 43976U 14055AF  26231.58626684 -.00000139  00000-0  00000-0 0  9997
2 43976  19.9930 143.2378 4743864 162.0703 222.9885  1.83492886 53367
Epoch: 2026-08-19T14:04Z
TLE epoch observation values (Epoch: 2026-08-19T14:04:13.454Z)
Latitude
0.00004°
Longitude
-35.77807°
Altitude
33,452.428 km
Speed
2.423 km/s
True Right ascension
09h 32m 51s
True Declination
0° 00' 00"
Sunlit
Object was in daylight at epoch
Visualization orbit readout
Latitude
Unknown
Longitude
Unknown
Altitude
Unknown
Speed
Unknown
Apparent Right ascension
Unknown
Apparent Declination
Unknown
Sunlit
N/A
Visualization observer readout
Local Sidereal Time
19:31:25
Azimuth
Unknown
Elevation
Unknown
Doppler factor
Unknown
Orbital elements
Apogee altitude
35,177.478 km
Perigee altitude
8,436.294 km
Semi-major axis
28,185.023 km
Eccentricity
0.47439
Inclination
19.993°
RAAN
143.2378°
Arg. of periapsis
162.0703°
True anomaly
197.91314°
Mean anomaly
222.9885°
Eccentric anomaly
209.5738°
Mean motion
0.45869 °/min
Orbital period
784.85 mins
BSTAR
0
Loading maneuver chart data...
Computing Atmospheric mass density...

Documentation

Showing up to 5 results
|